sat.trackr.live / text

‹ back to catalog

KUIPER-00521

NORAD 68891 · 2026-095AD

PAYLOAD ACTIVE UNKNOWN

§ Identity

Operator
Country
US
Launch date
2026-04-28
Launch site
AFETR
Launch vehicle
Mass (kg)
RCS (m²)

External: N2YO · Heavens-Above · Gunter

§ Orbital elements

Epoch: 2026-05-24T20:41:02.044608Z

Period
93.62 min
Inclination
51.8855°
Eccentricity
0.0000951
Mean motion
15.38150464 rev/d
Perigee alt
450.9 km
Apogee alt
452.2 km
Semi-major
6,829.7 km
B*
1.0662e-3
RAAN
354.9604°
Arg perigee
124.5589°
Mean anomaly
235.5488°
Rev number
414

§ Raw data

KUIPER-005211 68891U 26095AD  26144.86182922  .00040505  00000+0  10662-2 0  99992 68891  51.8855 354.9604 0000951 124.5589 235.5488 15.38150464  4147

JSON: /api/v1/satellites/68891 · /tle

For live sub-satellite position, see the globe view (requires WebGL).

§ Visibility from observer

Set your observer location to see the next 7 days of passes ≥ 10°. The values pass through the URL so the page stays shareable.

No JS? Fill the form by hand. The geolocation button needs JavaScript.